CW1102 Weather Reports


Display with metric or nautical units.
time (UTC)temp
F
wind
direction
speed
MPH
gust
MPH
rain 1hr
in
rain 24hr
in
rain mn
in
humidity
%
barometer
mb
20260508234500 69 267 10.0 16.0 0.00 0.00 0.00 35 1014.5
20260508233124 68 321 6.0 12.0 0.00 0.00 0.00 36 1014.6
20260508231600 68 319 8.0 16.0 0.00 0.00 0.00 35 1014.7
20260508230101 68 297 9.0 16.0 0.00 0.00 0.00 35 1014.8
20260508224558 68 330 6.0 15.0 0.00 0.00 0.00 33 1014.8
20260508223057 67 336 8.0 15.0 0.00 0.00 0.00 32 1014.7
20260508221556 67 297 4.0 13.0 0.00 0.00 0.00 31 1014.7
20260508220056 67 285 5.0 11.0 0.00 0.00 0.00 31 1014.9
20260508214555 67 277 9.0 17.0 0.00 0.00 0.00 31 1014.8
20260508213054 67 281 9.0 18.0 0.00 0.00 0.00 29 1014.7
20260508211554 68 318 9.0 19.0 0.00 0.00 0.00 29 1014.7
20260508210052 68 286 13.0 18.0 0.00 0.00 0.00 28 1014.7
20260508204554 67 309 10.0 18.0 0.00 0.00 0.00 29 1014.8
20260508203049 68 291 10.0 20.0 0.00 0.00 0.00 29 1014.7
20260508201549 68 300 5.0 20.0 0.00 0.00 0.00 28 1014.7
20260508200103 65 13 8.0 17.0 0.00 0.00 0.00 31 1014.7
20260508194543 65 305 7.0 14.0 0.00 0.00 0.00 30 1014.8
20260508193055 65 316 6.0 14.0 0.00 0.00 0.00 31 1014.8
20260508191542 65 335 8.0 11.0 0.00 0.00 0.00 28 1014.9
20260508190038 64 338 6.0 14.0 0.00 0.00 0.00 28 1014.8
20260508184535 64 296 6.0 14.0 0.00 0.00 0.00 29 1015.0
20260508183032 63 313 4.0 8.0 0.00 0.00 0.00 35 1015.1
20260508181629 60 326 3.0 5.0 0.00 0.00 0.00 53 1015.2
20260508180027 58 318 1.0 6.0 0.00 0.00 0.00 55 1015.3
20260508174522 58 262 3.0 5.0 0.00 0.00 0.00 54 1015.4
20260508173022 56 309 2.0 4.0 0.00 0.00 0.00 56 1015.5
20260508171518 54 283 2.0 4.0 0.00 0.00 0.00 55 1015.7
20260508170014 52 285 1.0 4.0 0.00 0.00 0.00 60 1015.7
20260508164514 52 296 1.0 4.0 0.00 0.00 0.00 60 1015.7
20260508163016 50 259 1.0 3.0 0.00 0.00 0.00 61 1015.8
20260508161511 49 34 1.0 4.0 0.00 0.00 0.00 65 1015.9
20260508160007 49 27 0.0 2.0 0.00 0.00 0.00 62 1015.9
20260508154504 48 290 0.0 2.0 0.00 0.00 0.00 62 1015.9
20260508153001 46 104 0.0 2.0 0.00 0.00 0.00 67 1016.0
20260508151609 46 95 2.0 3.0 0.00 0.00 0.00 67 1016.1
20260508150056 43 111 1.0 4.0 0.00 0.00 0.00 74 1016.2
20260508144607 42 81 1.0 5.0 0.00 0.00 0.00 74 1016.3
20260508143102 41 56 1.0 4.0 0.00 0.00 0.00 76 1016.4
20260508141604 41 60 0.0 2.0 0.00 0.00 0.00 75 1016.3
20260508140053 39 76 0.0 2.0 0.00 0.00 0.00 78 1016.3
20260508134612 37 69 0.0 2.0 0.00 0.00 0.00 81 1016.2
20260508133057 37 112 0.0 1.0 0.00 0.00 0.00 82 1016.1
20260508131551 34 112 0.0 1.0 0.00 0.00 0.00 85 1016.0
20260508130047 32 120 0.0 1.0 0.00 0.00 0.00 90 1015.9
20260508124545 32 112 0.0 1.0 0.00 0.00 0.00 90 1015.8
20260508123049 32 108 0.0 0.0 0.00 0.00 0.00 89 1015.5
20260508121538 32 54 0.0 0.0 0.00 0.00 0.00 89 1015.4
20260508114535 33 51 0.0 0.0 0.00 0.00 0.00 88 1015.2
20260508113034 33 243 0.0 0.0 0.00 0.00 0.00 87 1015.1
20260508111536 33 243 0.0 0.0 0.00 0.00 0.00 87 1014.9
20260508110027 33 243 0.0 1.0 0.00 0.00 0.00 86 1014.8
20260508104525 35 233 0.0 2.0 0.00 0.00 0.00 85 1014.7
20260508103027 35 122 1.0 3.0 0.00 0.00 0.00 86 1014.6
20260508101520 35 122 0.0 2.0 0.00 0.00 0.00 85 1014.5
20260508100017 35 99 1.0 2.0 0.00 0.00 0.00 85 1014.4
20260508071549 42 96 0.0 0.0 0.00 0.00 0.00 77 1013.2
20260508064547 44 86 0.0 2.0 0.00 0.00 0.00 75 1013.1
20260508063044 44 316 0.0 0.0 0.00 0.00 0.00 74 1013.0
20260508061543 45 320 0.0 1.0 0.00 0.00 0.00 73 1012.9
20260508060053 46 105 0.0 0.0 0.00 0.00 0.00 72 1012.7
20260508054538 47 82 0.0 2.0 0.00 0.00 0.00 68 1012.6
20260508053037 48 117 0.0 1.0 0.00 0.00 0.00 65 1012.5
20260508051550 48 86 0.0 1.0 0.00 0.00 0.00 66 1012.4
20260508050036 49 57 1.0 2.0 0.00 0.00 0.00 64 1012.4
20260508044538 51 106 0.0 1.0 0.00 0.00 0.00 62 1012.3
20260508043035 53 75 0.0 2.0 0.00 0.00 0.00 59 1012.2
20260508041534 55 276 0.0 1.0 0.00 0.00 0.00 51 1012.2
20260508040046 57 279 0.0 2.0 0.00 0.00 0.00 46 1012.0
20260508034543 58 230 0.0 3.0 0.00 0.00 0.00 42 1012.0
20260508033033 58 281 0.0 0.0 0.00 0.00 0.00 45 1011.7
20260508031536 60 281 0.0 2.0 0.00 0.00 0.00 40 1011.5
20260508030031 61 278 1.0 2.0 0.00 0.00 0.00 38 1011.3
20260508024552 62 278 0.0 3.0 0.00 0.00 0.00 37 1011.1
20260508023031 64 284 0.0 3.0 0.00 0.00 0.00 35 1010.9
20260508021530 65 293 3.0 5.0 0.00 0.00 0.00 33 1010.8
20260508020033 67 295 2.0 6.0 0.00 0.00 0.00 31 1010.7
20260508014532 69 282 1.0 5.0 0.00 0.00 0.00 26 1010.6
20260508013032 70 293 5.0 10.0 0.00 0.00 0.00 23 1010.6
20260508011531 72 273 3.0 7.0 0.00 0.00 0.00 21 1010.5
20260508010025 72 297 3.0 11.0 0.00 0.00 0.00 20 1010.7
20260508004538 72 311 7.0 14.0 0.00 0.00 0.00 19 1010.7
20260508003023 72 303 4.0 8.0 0.00 0.00 0.00 22 1010.7
20260508001531 72 336 4.0 12.0 0.00 0.00 0.00 23 1010.7
20260508000020 72 324 7.0 11.0 0.00 0.00 0.00 25 1010.7